• In Hungary
  • List of Countries
  • For 7 days
  • Water Temperature
  • Satellite Maps
  • Weather Map
  • News
  • Weather Widgets
  • user-avatar
    Login

    Hourly Weather Rechki

    Today, 18 October, Thursday

    Time Temperature Precipitation Wind Pressure Humidity
    00:00 +13°C° 0 mm 2 mps 754 mmHg 81%
    01:00 +13°C° 0 mm 2 mps 754 mmHg 84%
    02:00 +13°C° 0 mm 2 mps 754 mmHg 88%
    03:00 +13°C° 0 mm 2 mps 754 mmHg 89%
    04:00 +12°C° 0 mm 2 mps 753 mmHg 90%
    05:00 +12°C° 0 mm 2 mps 753 mmHg 91%
    06:00 +12°C° 0 mm 2 mps 753 mmHg 90%
    07:00 +13°C° 0 mm 2 mps 753 mmHg 89%
    08:00 +13°C° 0 mm 2 mps 753 mmHg 87%
    09:00 +15°C° 0 mm 2 mps 753 mmHg 79%
    10:00 +17°C° 0 mm 2 mps 752 mmHg 71%
    11:00 +19°C° 0 mm 2 mps 752 mmHg 63%
    12:00 +20°C° 0 mm 2 mps 752 mmHg 59%
    13:00 +20°C° 0 mm 3 mps 752 mmHg 54%
    14:00 +21°C° 0 mm 3 mps 751 mmHg 50%
    15:00 +20°C° 0 mm 2 mps 751 mmHg 54%
    16:00 +19°C° 0 mm 2 mps 751 mmHg 58%
    17:00 +18°C° 0 mm 1 mps 750 mmHg 62%
    18:00 +16°C° 0 mm 1 mps 750 mmHg 65%
    19:00 +15°C° 0 mm 1 mps 750 mmHg 67%
    20:00 +14°C° 0 mm 1 mps 750 mmHg 70%
    21:00 +14°C° 0 mm 1 mps 750 mmHg 71%
    22:00 +13°C° 0 mm 1 mps 750 mmHg 73%
    23:00 +13°C° 0 mm 1 mps 750 mmHg 75%

    Tomorrow, 19 October, Friday

    Time Temperature Precipitation Wind Pressure Humidity
    00:00 +12°C° 0 mm 1 mps 750 mmHg 77%
    01:00 +12°C° 0 mm 1 mps 750 mmHg 79%
    02:00 +10°C° 0 mm 0 mps 750 mmHg 81%
    03:00 +10°C° 0 mm 0 mps 750 mmHg 82%
    04:00 +10°C° 0 mm 0 mps 750 mmHg 83%
    05:00 +10°C° 0 mm 0 mps 750 mmHg 84%
    06:00 +10°C° 0 mm 0 mps 750 mmHg 83%
    07:00 +11°C° 0 mm 1 mps 750 mmHg 82%
    08:00 +12°C° 0 mm 1 mps 750 mmHg 81%
    09:00 +13°C° 0 mm 1 mps 751 mmHg 75%
    10:00 +15°C° 0 mm 1 mps 751 mmHg 68%
    11:00 +18°C° 0 mm 1 mps 751 mmHg 62%
    12:00 +18°C° 0 mm 2 mps 751 mmHg 59%
    13:00 +18°C° 0 mm 2 mps 751 mmHg 57%
    14:00 +19°C° 0 mm 2 mps 751 mmHg 55%
    15:00 +18°C° 0 mm 2 mps 751 mmHg 61%
    16:00 +16°C° 0 mm 2 mps 751 mmHg 66%
    17:00 +15°C° 0 mm 2 mps 751 mmHg 72%
    18:00 +14°C° 0 mm 2 mps 751 mmHg 76%
    19:00 +13°C° 0 mm 2 mps 752 mmHg 81%
    20:00 +12°C° 0 mm 2 mps 752 mmHg 85%
    21:00 +12°C° 0 mm 2 mps 752 mmHg 88%
    22:00 +10°C° 0 mm 2 mps 752 mmHg 90%
    23:00 +9°C° 0 mm 2 mps 753 mmHg 93%

    Day after tomorrow, 20 October, Saturday

    Time Temperature Precipitation Wind Pressure Humidity
    00:00 +9°C° 0 mm 2 mps 753 mmHg 94%
    01:00 +9°C° 0 mm 2 mps 753 mmHg 95%
    02:00 +8°C° 0 mm 2 mps 753 mmHg 95%
    03:00 +8°C° 0 mm 2 mps 753 mmHg 95%
    04:00 +8°C° 0 mm 2 mps 753 mmHg 94%
    05:00 +8°C° 0 mm 2 mps 753 mmHg 94%
    06:00 +9°C° 0 mm 2 mps 754 mmHg 92%
    07:00 +9°C° 0 mm 2 mps 754 mmHg 90%
    08:00 +10°C° 0 mm 1 mps 754 mmHg 88%
    09:00 +10°C° 0 mm 2 mps 754 mmHg 82%
    10:00 +12°C° 0 mm 2 mps 754 mmHg 77%
    11:00 +12°C° 0 mm 2 mps 755 mmHg 71%
    12:00 +13°C° 0 mm 2 mps 754 mmHg 67%
    13:00 +12°C° 0 mm 3 mps 754 mmHg 62%
    14:00 +13°C° 0 mm 3 mps 754 mmHg 58%
    15:00 +12°C° 0 mm 3 mps 754 mmHg 61%
    16:00 +12°C° 0 mm 2 mps 754 mmHg 64%
    17:00 +10°C° 0 mm 2 mps 753 mmHg 67%
    18:00 +9°C° 0 mm 2 mps 754 mmHg 71%
    19:00 +8°C° 0 mm 2 mps 754 mmHg 74%
    20:00 +7°C° 0 mm 2 mps 754 mmHg 78%
    21:00 +7°C° 0 mm 2 mps 754 mmHg 79%
    22:00 +7°C° 0 mm 2 mps 753 mmHg 80%
    23:00 +7°C° 0 mm 2 mps 753 mmHg 81%

    21 October, Sunday

    Time Temperature Precipitation Wind Pressure Humidity
    00:00 +7°C° 0 mm 3 mps 753 mmHg 81%
    01:00 +7°C° 0 mm 3 mps 753 mmHg 80%
    02:00 +8°C° 0 mm 3 mps 753 mmHg 79%
    03:00 +8°C° 0.1 mm 3 mps 752 mmHg 81%
    04:00 +7°C° 0.1 mm 4 mps 752 mmHg 82%
    05:00 +7°C° 0.1 mm 4 mps 752 mmHg 84%
    06:00 +6°C° 0 mm 4 mps 752 mmHg 85%
    07:00 +6°C° 0 mm 4 mps 752 mmHg 85%
    08:00 +6°C° 0 mm 4 mps 752 mmHg 86%
    09:00 +7°C° 0 mm 4 mps 752 mmHg 81%
    10:00 +7°C° 0 mm 5 mps 752 mmHg 75%
    11:00 +8°C° 0 mm 5 mps 752 mmHg 70%
    12:00 +8°C° 0 mm 5 mps 752 mmHg 69%
    13:00 +8°C° 0 mm 5 mps 752 mmHg 69%
    14:00 +8°C° 0 mm 4 mps 752 mmHg 68%
    15:00 +8°C° 0 mm 4 mps 753 mmHg 70%
    16:00 +8°C° 0 mm 4 mps 753 mmHg 72%
    17:00 +8°C° 0 mm 3 mps 753 mmHg 74%
    18:00 +8°C° 0 mm 3 mps 753 mmHg 78%
    19:00 +7°C° 0 mm 3 mps 753 mmHg 82%
    20:00 +7°C° 0 mm 3 mps 754 mmHg 85%
    21:00 +5°C° 0 mm 3 mps 754 mmHg 88%
    22:00 +5°C° 0 mm 2 mps 754 mmHg 90%
    23:00 +5°C° 0 mm 2 mps 754 mmHg 93%

    22 October, Monday

    Time Temperature Precipitation Wind Pressure Humidity
    00:00 +5°C° 0 mm 2 mps 754 mmHg 93%
    01:00 +4°C° 0 mm 2 mps 754 mmHg 93%
    02:00 +5°C° 0 mm 1 mps 754 mmHg 94%
    03:00 +5°C° 0 mm 1 mps 754 mmHg 93%
    04:00 +4°C° 0 mm 1 mps 754 mmHg 93%
    05:00 +3°C° 0 mm 0 mps 754 mmHg 93%
    06:00 +4°C° 0 mm 1 mps 755 mmHg 92%
    07:00 +5°C° 0 mm 1 mps 755 mmHg 91%
    08:00 +5°C° 0 mm 1 mps 755 mmHg 91%
    09:00 +7°C° 0 mm 1 mps 755 mmHg 82%
    10:00 +7°C° 0 mm 2 mps 755 mmHg 74%
    11:00 +9°C° 0 mm 2 mps 755 mmHg 66%
    12:00 +10°C° 0 mm 3 mps 754 mmHg 62%
    13:00 +11°C° 0 mm 3 mps 753 mmHg 59%
    14:00 +11°C° 0 mm 4 mps 753 mmHg 55%
    15:00 +10°C° 0 mm 3 mps 753 mmHg 60%
    16:00 +9°C° 0 mm 3 mps 752 mmHg 64%
    17:00 +8°C° 0 mm 3 mps 752 mmHg 68%
    18:00 +8°C° 0 mm 3 mps 752 mmHg 71%
    19:00 +7°C° 0 mm 3 mps 751 mmHg 73%
    20:00 +7°C° 0 mm 3 mps 751 mmHg 75%
    21:00 +7°C° 0.5 mm 3 mps 751 mmHg 77%
    22:00 +7°C° 0.5 mm 3 mps 751 mmHg 79%
    23:00 +7°C° 0.5 mm 3 mps 750 mmHg 81%

    23 October, Tuesday

    Time Temperature Precipitation Wind Pressure Humidity
    00:00 +7°C° 0.7 mm 3 mps 750 mmHg 84%
    01:00 +7°C° 0.7 mm 2 mps 750 mmHg 86%
    02:00 +7°C° 0.7 mm 2 mps 749 mmHg 89%
    03:00 +7°C° 0.6 mm 2 mps 749 mmHg 90%
    04:00 +7°C° 0.6 mm 2 mps 748 mmHg 91%
    05:00 +7°C° 0.6 mm 2 mps 748 mmHg 92%
    06:00 +7°C° 0.5 mm 2 mps 748 mmHg 91%
    07:00 +6°C° 0.5 mm 2 mps 747 mmHg 90%
    08:00 +6°C° 0.5 mm 2 mps 747 mmHg 89%
    09:00 +7°C° 0.2 mm 2 mps 747 mmHg 84%
    10:00 +7°C° 0.2 mm 2 mps 747 mmHg 79%
    11:00 +8°C° 0.2 mm 2 mps 746 mmHg 73%
    12:00 +8°C° 0 mm 2 mps 746 mmHg 69%
    13:00 +9°C° 0 mm 2 mps 745 mmHg 64%
    14:00 +9°C° 0 mm 2 mps 745 mmHg 59%
    15:00 +9°C° 0 mm 1 mps 744 mmHg 62%
    16:00 +8°C° 0 mm 1 mps 744 mmHg 65%
    17:00 +8°C° 0 mm 1 mps 744 mmHg 68%
    18:00 +7°C° 0 mm 1 mps 744 mmHg 69%
    19:00 +7°C° 0 mm 1 mps 744 mmHg 71%
    20:00 +7°C° 0 mm 1 mps 743 mmHg 72%
    21:00 +6°C° 0 mm 1 mps 743 mmHg 73%
    22:00 +6°C° 0 mm 1 mps 743 mmHg 75%
    23:00 +6°C° 0 mm 1 mps 743 mmHg 77%
    Show more